QPF
0.00 0.00 0.01 0.02 0.01 0.00 0.01 0.01 0.01 0.01 0.01 0.00 0.00 0.00 0.00 0.00 0.00 0.00 0.00 0.00 0.00 0.00 0.00 0.00 0.00 0.00 0.00 0.01 0.01 0.02 0.02 0.03 0.03 0.02 0.02 0.03 0.03 0.03 0.03 0.03 0.03 0.02 0.02 0.02
0.00 0.00 0.00 0.01 0.01 0.00 0.00 0.01 0.01 0.01 0.00 0.00 0.00 0.00 0.00 0.00 0.00 0.00 0.00 0.00 0.00 0.00 0.00 0.00 0.00 0.00 0.00 0.00 0.01 0.02 0.03 0.03 0.04 0.03 0.03 0.03 0.03 0.03 0.03 0.03 0.03 0.03 0.02 0.01
0.01 0.00 0.00 0.00 0.00 0.00 0.00 0.00 0.00 0.01 0.00 0.00 0.00 0.01 0.00 0.00 0.00 0.00 0.00 0.00 0.00 0.00 0.00 0.00 0.00 0.00 0.00 0.00 0.01 0.01 0.02 0.03 0.04 0.04 0.04 0.04 0.03 0.03 0.03 0.03 0.03 0.03 0.04 0.03
0.01 0.01 0.01 0.00 0.00 0.00 0.00 0.00 0.00 0.00 0.00 0.00 0.00 0.01 0.01 0.00 0.00 0.00 0.00 0.00 0.01 0.01 0.01 0.01 0.00 0.00 0.00 0.01 0.01 0.01 0.01 0.02 0.04 0.04 0.04 0.04 0.04 0.04 0.04 0.03 0.03 0.02 0.02 0.01
0.01 0.01 0.01 0.00 0.00 0.00 0.00 0.00 0.00 0.00 0.00 0.01 0.01 0.01 0.00 0.00 0.00 0.00 0.00 0.00 0.01 0.01 0.01 0.01 0.01 0.01 0.02 0.01 0.02 0.02 0.01 0.02 0.03 0.04 0.04 0.04 0.04 0.04 0.04 0.03 0.03 0.02 0.02 0.02
0.02 0.02 0.01 0.00 0.00 0.00 0.00 0.00 0.00 0.01 0.01 0.01 0.01 0.01 0.00 0.00 0.00 0.00 0.00 0.00 0.00 0.00 0.00 0.01 0.01 0.01 0.02 0.02 0.03 0.02 0.02 0.03 0.03 0.03 0.03 0.04 0.04 0.05 0.05 0.04 0.03 0.03 0.02 0.02
0.01 0.01 0.01 0.00 0.00 0.00 0.00 0.01 0.00 0.01 0.01 0.02 0.02 0.01 0.01 0.00 0.00 0.00 0.00 0.00 0.00 0.00 0.00 0.00 0.01 0.02 0.02 0.02 0.03 0.02 0.03 0.04 0.02 0.02 0.03 0.03 0.03 0.04 0.05 0.06 0.05 0.04 0.03 0.02
0.00 0.01 0.01 0.00 0.00 0.00 0.00 0.00 0.01 0.01 0.01 0.01 0.01 0.01 0.00 0.00 0.00 0.00 0.00 0.00 0.00 0.00 0.00 0.00 0.00 0.01 0.01 0.02 0.02 0.02 0.03 0.02 0.01 0.02 0.02 0.03 0.04 0.04 0.04 0.05 0.06 0.06 0.05 0.04
0.00 0.00 0.00 0.00 0.00 0.00 0.00 0.00 0.01 0.02 0.01 0.00 0.00 0.00 0.00 0.00 0.00 0.00 0.00 0.00 0.00 0.00 0.00 0.00 0.01 0.01 0.01 0.01 0.02 0.02 0.02 0.01 0.01 0.01 0.01 0.02 0.03 0.04 0.04 0.05 0.05 0.05 0.05 0.04
0.00 0.00 0.00 0.00 0.00 0.00 0.00 0.00 0.01 0.01 0.01 0.01 0.00 0.00 0.01 0.01 0.01 0.00 0.00 0.00 0.00 0.00 0.00 0.00 0.01 0.01 0.02 0.02 0.02 0.01 0.01 0.00 0.01 0.01 0.01 0.02 0.03 0.04 0.04 0.04 0.04 0.03 0.04 0.04
0.01 0.00 0.00 0.00 0.00 0.00 0.00 0.00 0.00 0.01 0.01 0.02 0.02 0.01 0.01 0.01 0.00 0.00 0.00 0.00 0.00 0.00 0.00 0.00 0.01 0.01 0.02 0.02 0.01 0.01 0.01 0.00 0.01 0.01 0.01 0.01 0.02 0.04 0.04 0.05 0.05 0.05 0.04 0.04
0.00 0.00 0.00 0.00 0.00 0.00 0.00 0.00 0.00 0.00 0.01 0.01 0.02 0.02 0.02 0.02 0.01 0.01 0.00 0.00 0.00 0.00 0.00 0.00 0.01 0.01 0.02 0.01 0.01 0.01 0.01 0.01 0.01 0.01 0.01 0.01 0.02 0.03 0.03 0.03 0.04 0.05 0.05 0.04
0.00 0.00 0.00 0.00 0.00 0.00 0.00 0.00 0.00 0.01 0.01 0.02 0.02 0.02 0.02 0.01 0.01 0.01 0.00 0.00 0.00 0.00 0.01 0.00 0.01 0.02 0.01 0.01 0.00 0.01 0.01 0.01 0.01 0.01 0.01 0.01 0.02 0.03 0.03 0.02 0.02 0.03 0.04 0.03
0.00 0.00 0.00 0.00 0.00 0.00 0.00 0.00 0.00 0.01 0.01 0.02 0.03 0.02 0.01 0.01 0.00 0.01 0.00 0.00 0.01 0.01 0.00 0.01 0.02 0.01 0.01 0.01 0.01 0.01 0.01 0.01 0.02 0.01 0.01 0.02 0.03 0.03 0.02 0.02 0.02 0.02 0.03 0.02
0.00 0.00 0.00 0.00 0.00 0.00 0.00 0.00 0.00 0.00 0.01 0.02 0.02 0.01 0.01 0.00 0.00 0.00 0.00 0.01 0.01 0.00 0.00 0.01 0.01 0.00 0.00 0.00 0.01 0.01 0.01 0.01 0.01 0.01 0.01 0.03 0.04 0.03 0.03 0.02 0.02 0.02 0.02 0.02
0.00 0.00 0.00 0.00 0.00 0.00 0.00 0.00 0.00 0.00 0.01 0.01 0.02 0.01 0.01 0.00 0.00 0.00 0.00 0.00 0.01 0.01 0.00 0.00 0.00 0.00 0.00 0.00 0.01 0.01 0.01 0.01 0.01 0.02 0.02 0.03 0.05 0.03 0.02 0.02 0.01 0.01 0.01 0.01
0.00 0.00 0.00 0.00 0.00 0.00 0.00 0.00 0.00 0.00 0.01 0.01 0.02 0.01 0.01 0.01 0.00 0.00 0.00 0.00 0.00 0.00 0.01 0.00 0.01 0.01 0.01 0.01 0.01 0.01 0.01 0.01 0.01 0.02 0.02 0.03 0.05 0.04 0.03 0.02 0.01 0.01 0.01 0.01
0.00 0.00 0.00 0.00 0.00 0.00 0.00 0.00 0.00 0.00 0.00 0.01 0.01 0.01 0.01 0.01 0.00 0.00 0.00 0.00 0.01 0.01 0.01 0.01 0.02 0.02 0.02 0.01 0.01 0.01 0.01 0.01 0.01 0.02 0.02 0.04 0.04 0.04 0.04 0.02 0.02 0.01 0.01 0.01
0.00 0.00 0.00 0.00 0.00 0.00 0.00 0.00 0.00 0.00 0.00 0.01 0.01 0.02 0.01 0.01 0.00 0.00 0.00 0.00 0.01 0.01 0.02 0.02 0.04 0.04 0.03 0.02 0.02 0.01 0.01 0.01 0.02 0.02 0.02 0.04 0.03 0.04 0.04 0.02 0.01 0.01 0.01 0.01
0.00 0.00 0.00 0.00 0.00 0.00 0.01 0.01 0.01 0.01 0.01 0.01 0.02 0.01 0.01 0.01 0.00 0.00 0.00 0.00 0.01 0.02 0.02 0.03 0.04 0.04 0.04 0.04 0.03 0.02 0.02 0.02 0.02 0.02 0.02 0.03 0.02 0.03 0.03 0.02 0.01 0.01 0.01 0.01
0.00 0.00 0.00 0.00 0.00 0.01 0.01 0.01 0.01 0.01 0.01 0.01 0.02 0.01 0.01 0.00 0.00 0.00 0.00 0.00 0.00 0.01 0.01 0.02 0.02 0.03 0.03 0.04 0.04 0.03 0.03 0.02 0.02 0.02 0.02 0.02 0.01 0.02 0.02 0.02 0.01 0.01 0.01 0.01
0.00 0.00 0.00 0.00 0.01 0.01 0.01 0.01 0.01 0.01 0.01 0.02 0.02 0.01 0.01 0.01 0.01 0.00 0.00 0.00 0.00 0.01 0.01 0.02 0.02 0.02 0.03 0.03 0.03 0.03 0.03 0.02 0.02 0.02 0.02 0.02 0.02 0.02 0.02 0.02 0.02 0.02 0.01 0.01
0.00 0.00 0.01 0.00 0.01 0.01 0.01 0.01 0.01 0.01 0.01 0.02 0.02 0.02 0.02 0.01 0.01 0.01 0.01 0.01 0.01 0.01 0.01 0.01 0.02 0.02 0.03 0.03 0.03 0.03 0.02 0.02 0.02 0.02 0.02 0.02 0.03 0.03 0.03 0.03 0.03 0.02 0.02 0.02
0.00 0.00 0.00 0.00 0.00 0.00 0.00 0.01 0.00 0.00 0.01 0.01 0.02 0.02 0.01 0.01 0.01 0.01 0.01 0.01 0.01 0.01 0.00 0.01 0.02 0.02 0.03 0.03 0.03 0.02 0.02 0.02 0.03 0.03 0.03 0.03 0.03 0.03 0.03 0.03 0.02 0.01 0.01 0.02
0.00 0.00 0.00 0.00 0.00 0.00 0.00 0.00 0.00 0.01 0.01 0.01 0.01 0.01 0.01 0.01 0.02 0.02 0.01 0.01 0.01 0.01 0.00 0.01 0.01 0.02 0.03 0.03 0.03 0.03 0.03 0.02 0.03 0.03 0.03 0.03 0.03 0.02 0.02 0.02 0.02 0.02 0.02 0.02
0.00 0.00 0.00 0.00 0.00 0.00 0.00 0.00 0.00 0.00 0.00 0.00 0.00 0.00 0.01 0.01 0.02 0.01 0.01 0.01 0.01 0.01 0.00 0.00 0.00 0.01 0.02 0.02 0.02 0.02 0.02 0.02 0.02 0.03 0.04 0.04 0.03 0.02 0.02 0.02 0.02 0.02 0.02 0.02
0.00 0.00 0.00 0.00 0.00 0.00 0.00 0.00 0.00 0.00 0.00 0.00 0.00 0.00 0.00 0.00 0.00 0.01 0.00 0.00 0.01 0.01 0.00 0.00 0.00 0.01 0.01 0.01 0.01 0.01 0.01 0.02 0.02 0.02 0.04 0.05 0.04 0.02 0.01 0.01 0.01 0.01 0.01 0.01
MSLP
1006.50 1006.26 1006.21 1006.34 1006.62 1006.98 1007.33 1007.59 1007.69 1007.59 1007.28 1006.80 1006.19 1005.56 1004.99 1004.55 1004.31 1004.28 1004.48 1004.86 1005.38 1006.01 1006.68 1007.38 1008.08 1008.80 1009.52 1010.27 1011.05 1011.84 1012.65 1013.44 1014.18 1014.86 1015.45 1015.95 1016.38 1016.75 1017.09 1017.44 1017.82 1018.24 1018.71 1019.22
1007.21 1006.92 1006.73 1006.66 1006.69 1006.78 1006.90 1006.99 1007.00 1006.91 1006.72 1006.43 1006.08 1005.73 1005.42 1005.20 1005.10 1005.14 1005.30 1005.57 1005.92 1006.34 1006.79 1007.28 1007.80 1008.37 1009.00 1009.69 1010.44 1011.25 1012.09 1012.93 1013.74 1014.49 1015.15 1015.72 1016.20 1016.63 1017.01 1017.38 1017.77 1018.20 1018.67 1019.18
1008.10 1007.79 1007.51 1007.26 1007.06 1006.91 1006.79 1006.68 1006.57 1006.45 1006.32 1006.18 1006.05 1005.94 1005.88 1005.88 1005.93 1006.04 1006.19 1006.38 1006.59 1006.81 1007.05 1007.32 1007.64 1008.03 1008.52 1009.11 1009.81 1010.60 1011.44 1012.32 1013.18 1014.00 1014.74 1015.39 1015.96 1016.45 1016.90 1017.32 1017.74 1018.18 1018.65 1019.16
1009.12 1008.83 1008.50 1008.13 1007.75 1007.38 1007.04 1006.74 1006.49 1006.31 1006.18 1006.13 1006.15 1006.23 1006.36 1006.54 1006.72 1006.91 1007.07 1007.20 1007.29 1007.35 1007.40 1007.46 1007.58 1007.79 1008.11 1008.58 1009.18 1009.91 1010.73 1011.61 1012.51 1013.38 1014.20 1014.94 1015.60 1016.18 1016.70 1017.19 1017.65 1018.12 1018.61 1019.11
1010.14 1009.92 1009.58 1009.16 1008.66 1008.14 1007.63 1007.16 1006.78 1006.50 1006.35 1006.32 1006.42 1006.61 1006.87 1007.16 1007.45 1007.70 1007.87 1007.96 1007.96 1007.89 1007.78 1007.67 1007.61 1007.64 1007.81 1008.13 1008.62 1009.25 1010.02 1010.87 1011.77 1012.68 1013.55 1014.36 1015.11 1015.78 1016.39 1016.95 1017.48 1017.98 1018.48 1018.99
1011.07 1010.92 1010.64 1010.21 1009.67 1009.07 1008.45 1007.87 1007.38 1007.02 1006.81 1006.76 1006.87 1007.10 1007.41 1007.76 1008.10 1008.37 1008.55 1008.61 1008.54 1008.38 1008.16 1007.92 1007.72 1007.60 1007.62 1007.80 1008.16 1008.69 1009.36 1010.16 1011.03 1011.93 1012.83 1013.70 1014.51 1015.26 1015.95 1016.58 1017.16 1017.71 1018.24 1018.76
1011.78 1011.73 1011.52 1011.16 1010.65 1010.05 1009.40 1008.77 1008.22 1007.79 1007.52 1007.42 1007.48 1007.69 1008.00 1008.34 1008.68 1008.94 1009.11 1009.14 1009.04 1008.83 1008.53 1008.21 1007.91 1007.68 1007.57 1007.63 1007.86 1008.27 1008.84 1009.54 1010.35 1011.21 1012.10 1012.98 1013.84 1014.64 1015.38 1016.08 1016.71 1017.31 1017.87 1018.40
1012.21 1012.26 1012.16 1011.89 1011.48 1010.95 1010.36 1009.75 1009.18 1008.72 1008.40 1008.24 1008.25 1008.39 1008.64 1008.93 1009.22 1009.45 1009.58 1009.59 1009.47 1009.23 1008.90 1008.54 1008.18 1007.88 1007.68 1007.64 1007.76 1008.04 1008.49 1009.09 1009.80 1010.59 1011.43 1012.29 1013.14 1013.96 1014.74 1015.47 1016.15 1016.78 1017.37 1017.93
1012.36 1012.48 1012.49 1012.36 1012.08 1011.68 1011.20 1010.67 1010.16 1009.71 1009.37 1009.17 1009.10 1009.16 1009.32 1009.53 1009.74 1009.92 1010.00 1009.99 1009.85 1009.61 1009.28 1008.91 1008.54 1008.21 1007.96 1007.84 1007.86 1008.04 1008.37 1008.84 1009.44 1010.13 1010.88 1011.68 1012.49 1013.29 1014.07 1014.81 1015.51 1016.17 1016.78 1017.37
1012.25 1012.42 1012.53 1012.53 1012.41 1012.17 1011.83 1011.44 1011.02 1010.64 1010.32 1010.09 1009.97 1009.95 1010.02 1010.13 1010.26 1010.36 1010.40 1010.36 1010.22 1009.99 1009.69 1009.34 1008.98 1008.65 1008.39 1008.22 1008.18 1008.26 1008.48 1008.83 1009.30 1009.86 1010.51 1011.21 1011.95 1012.70 1013.44 1014.17 1014.87 1015.53 1016.17 1016.77
1011.93 1012.13 1012.30 1012.42 1012.45 1012.37 1012.20 1011.96 1011.68 1011.38 1011.11 1010.90 1010.75 1010.68 1010.67 1010.70 1010.75 1010.78 1010.78 1010.72 1010.58 1010.37 1010.11 1009.81 1009.49 1009.19 1008.94 1008.76 1008.67 1008.68 1008.80 1009.04 1009.38 1009.82 1010.34 1010.93 1011.57 1012.24 1012.92 1013.60 1014.28 1014.94 1015.58 1016.20
1011.47 1011.66 1011.88 1012.07 1012.22 1012.28 1012.27 1012.18 1012.03 1011.85 1011.66 1011.48 1011.35 1011.25 1011.20 1011.17 1011.17 1011.15 1011.12 1011.05 1010.92 1010.75 1010.54 1010.30 1010.04 1009.79 1009.56 1009.39 1009.28 1009.24 1009.29 1009.44 1009.66 1009.98 1010.37 1010.84 1011.36 1011.93 1012.54 1013.16 1013.79 1014.43 1015.06 1015.68
1010.93 1011.09 1011.31 1011.54 1011.76 1011.93 1012.04 1012.08 1012.06 1011.98 1011.88 1011.77 1011.67 1011.59 1011.53 1011.49 1011.46 1011.43 1011.39 1011.32 1011.23 1011.10 1010.95 1010.77 1010.58 1010.39 1010.21 1010.06 1009.95 1009.89 1009.89 1009.95 1010.08 1010.29 1010.57 1010.91 1011.32 1011.79 1012.30 1012.85 1013.43 1014.02 1014.63 1015.24
1010.35 1010.46 1010.65 1010.89 1011.14 1011.37 1011.56 1011.68 1011.76 1011.78 1011.77 1011.73 1011.69 1011.65 1011.62 1011.60 1011.58 1011.57 1011.55 1011.52 1011.47 1011.40 1011.31 1011.20 1011.08 1010.95 1010.82 1010.71 1010.61 1010.55 1010.51 1010.52 1010.58 1010.70 1010.87 1011.11 1011.41 1011.77 1012.19 1012.66 1013.17 1013.71 1014.28 1014.87
1009.76 1009.82 1009.98 1010.19 1010.43 1010.67 1010.88 1011.06 1011.19 1011.28 1011.34 1011.38 1011.41 1011.43 1011.46 1011.49 1011.53 1011.57 1011.60 1011.63 1011.64 1011.63 1011.60 1011.56 1011.51 1011.44 1011.37 1011.30 1011.23 1011.16 1011.12 1011.09 1011.09 1011.13 1011.23 1011.37 1011.57 1011.84 1012.16 1012.55 1012.99 1013.47 1014.00 1014.55
1009.20 1009.23 1009.34 1009.51 1009.71 1009.92 1010.12 1010.30 1010.46 1010.59 1010.70 1010.80 1010.90 1011.00 1011.11 1011.22 1011.33 1011.44 1011.55 1011.64 1011.72 1011.79 1011.84 1011.86 1011.87 1011.87 1011.84 1011.81 1011.76 1011.71 1011.65 1011.60 1011.56 1011.55 1011.58 1011.64 1011.76 1011.94 1012.18 1012.49 1012.85 1013.27 1013.73 1014.23
1008.71 1008.73 1008.81 1008.94 1009.09 1009.25 1009.40 1009.56 1009.70 1009.84 1009.98 1010.13 1010.28 1010.46 1010.64 1010.84 1011.04 1011.24 1011.43 1011.61 1011.77 1011.91 1012.02 1012.11 1012.17 1012.21 1012.23 1012.23 1012.20 1012.16 1012.10 1012.04 1011.97 1011.92 1011.89 1011.89 1011.94 1012.04 1012.21 1012.43 1012.72 1013.07 1013.46 1013.90
1008.35 1008.39 1008.45 1008.54 1008.64 1008.74 1008.84 1008.95 1009.05 1009.18 1009.32 1009.49 1009.69 1009.92 1010.17 1010.45 1010.74 1011.03 1011.30 1011.56 1011.80 1012.00 1012.18 1012.32 1012.43 1012.51 1012.56 1012.57 1012.56 1012.52 1012.46 1012.38 1012.30 1012.21 1012.14 1012.09 1012.08 1012.12 1012.21 1012.36 1012.58 1012.85 1013.17 1013.54
1008.18 1008.25 1008.32 1008.40 1008.45 1008.50 1008.54 1008.59 1008.64 1008.73 1008.85 1009.02 1009.24 1009.51 1009.82 1010.16 1010.52 1010.88 1011.23 1011.56 1011.86 1012.12 1012.34 1012.52 1012.67 1012.77 1012.83 1012.86 1012.85 1012.81 1012.74 1012.65 1012.54 1012.43 1012.33 1012.24 1012.18 1012.16 1012.20 1012.28 1012.42 1012.62 1012.87 1013.16
1008.22 1008.35 1008.44 1008.51 1008.55 1008.55 1008.54 1008.53 1008.53 1008.57 1008.67 1008.82 1009.04 1009.32 1009.66 1010.04 1010.44 1010.85 1011.25 1011.63 1011.97 1012.27 1012.53 1012.73 1012.89 1013.00 1013.07 1013.09 1013.08 1013.03 1012.95 1012.85 1012.73 1012.60 1012.46 1012.34 1012.25 1012.18 1012.16 1012.19 1012.27 1012.39 1012.57 1012.78
1008.48 1008.66 1008.80 1008.88 1008.90 1008.88 1008.83 1008.77 1008.73 1008.72 1008.78 1008.90 1009.11 1009.38 1009.72 1010.11 1010.53 1010.96 1011.39 1011.79 1012.15 1012.46 1012.73 1012.94 1013.10 1013.20 1013.26 1013.28 1013.25 1013.19 1013.10 1012.98 1012.85 1012.70 1012.55 1012.41 1012.28 1012.18 1012.12 1012.09 1012.12 1012.18 1012.28 1012.42
1008.92 1009.16 1009.32 1009.42 1009.45 1009.42 1009.34 1009.25 1009.18 1009.14 1009.16 1009.25 1009.42 1009.67 1009.99 1010.37 1010.77 1011.20 1011.61 1012.01 1012.36 1012.67 1012.92 1013.12 1013.27 1013.36 1013.41 1013.40 1013.36 1013.29 1013.19 1013.06 1012.91 1012.75 1012.59 1012.44 1012.29 1012.17 1012.07 1012.01 1011.98 1011.98 1012.02 1012.10
1009.48 1009.75 1009.95 1010.07 1010.11 1010.07 1009.99 1009.89 1009.80 1009.73 1009.72 1009.78 1009.92 1010.14 1010.42 1010.76 1011.13 1011.52 1011.90 1012.26 1012.58 1012.86 1013.09 1013.26 1013.38 1013.45 1013.47 1013.45 1013.40 1013.31 1013.19 1013.06 1012.91 1012.74 1012.58 1012.41 1012.26 1012.12 1012.01 1011.91 1011.85 1011.81 1011.79 1011.80
1010.09 1010.38 1010.60 1010.73 1010.78 1010.75 1010.68 1010.58 1010.48 1010.41 1010.39 1010.42 1010.53 1010.71 1010.94 1011.23 1011.54 1011.87 1012.20 1012.50 1012.77 1013.00 1013.19 1013.32 1013.40 1013.44 1013.44 1013.40 1013.33 1013.23 1013.11 1012.97 1012.82 1012.66 1012.49 1012.33 1012.18 1012.04 1011.91 1011.80 1011.70 1011.63 1011.57 1011.53
1010.68 1010.97 1011.19 1011.33 1011.39 1011.38 1011.32 1011.24 1011.16 1011.09 1011.06 1011.08 1011.16 1011.30 1011.48 1011.70 1011.95 1012.21 1012.46 1012.69 1012.90 1013.07 1013.19 1013.28 1013.33 1013.34 1013.31 1013.25 1013.16 1013.06 1012.93 1012.79 1012.64 1012.48 1012.32 1012.17 1012.02 1011.88 1011.75 1011.63 1011.52 1011.42 1011.32 1011.24
1011.20 1011.48 1011.69 1011.83 1011.90 1011.91 1011.88 1011.82 1011.76 1011.71 1011.68 1011.70 1011.75 1011.85 1011.98 1012.14 1012.31 1012.49 1012.66 1012.81 1012.94 1013.04 1013.11 1013.14 1013.15 1013.12 1013.07 1012.99 1012.90 1012.78 1012.65 1012.51 1012.37 1012.22 1012.07 1011.92 1011.77 1011.64 1011.51 1011.38 1011.26 1011.15 1011.03 1010.92
1011.64 1011.89 1012.09 1012.23 1012.30 1012.33 1012.33 1012.30 1012.27 1012.24 1012.23 1012.24 1012.27 1012.33 1012.41 1012.50 1012.60 1012.69 1012.78 1012.85 1012.90 1012.92 1012.93 1012.92 1012.88 1012.82 1012.75 1012.66 1012.55 1012.43 1012.30 1012.16 1012.01 1011.86 1011.72 1011.57 1011.43 1011.30 1011.17 1011.04 1010.91 1010.79 1010.66 1010.52
Thickness
5700 5704 5702 5697 5696 5696 5690 5688 5680 5683 5684 5690 5694 5693 5693 5692 5690 5686 5682 5680 5677 5673 5672 5670 5669 5667 5666 5665 5665 5663 5661 5658 5656 5656 5655 5653 5651 5650 5650 5649 5649 5648 5648 5647
5689 5697 5696 5691 5694 5693 5690 5689 5684 5682 5681 5693 5695 5692 5688 5685 5682 5677 5675 5674 5671 5669 5667 5664 5663 5661 5659 5658 5657 5657 5654 5651 5651 5649 5648 5646 5644 5643 5643 5643 5642 5641 5641 5641
5674 5687 5686 5678 5691 5690 5687 5689 5684 5675 5679 5687 5683 5680 5677 5676 5673 5670 5668 5667 5665 5663 5661 5659 5658 5656 5653 5652 5651 5649 5647 5646 5644 5642 5641 5639 5638 5637 5636 5636 5635 5635 5634 5634
5666 5667 5657 5681 5699 5695 5685 5684 5686 5683 5681 5680 5676 5676 5675 5673 5668 5664 5663 5661 5659 5656 5654 5653 5652 5650 5648 5646 5644 5642 5640 5639 5637 5635 5634 5633 5631 5630 5629 5629 5628 5627 5627 5627
5656 5653 5661 5677 5686 5685 5674 5671 5679 5676 5675 5674 5673 5668 5664 5667 5665 5661 5658 5656 5653 5652 5649 5647 5645 5643 5639 5637 5636 5634 5633 5632 5630 5629 5627 5626 5624 5623 5623 5623 5622 5621 5622 5622
5650 5642 5643 5665 5679 5684 5671 5657 5671 5671 5666 5664 5660 5646 5647 5657 5657 5654 5652 5650 5647 5645 5643 5639 5637 5635 5632 5630 5628 5626 5626 5625 5624 5622 5620 5619 5617 5617 5617 5617 5615 5616 5616 5616
5642 5639 5649 5665 5672 5671 5646 5647 5662 5663 5660 5656 5650 5646 5648 5650 5649 5647 5644 5642 5640 5637 5633 5631 5630 5627 5624 5623 5621 5621 5620 5618 5617 5616 5614 5613 5612 5611 5611 5610 5609 5609 5608 5608
5643 5635 5639 5661 5659 5651 5649 5657 5656 5653 5653 5650 5647 5645 5643 5641 5639 5637 5635 5633 5630 5627 5624 5623 5622 5619 5616 5615 5615 5614 5613 5611 5610 5609 5609 5608 5605 5604 5604 5603 5601 5601 5601 5600
5645 5642 5652 5656 5653 5653 5653 5648 5646 5645 5645 5642 5638 5635 5634 5631 5630 5628 5626 5624 5622 5618 5615 5614 5613 5611 5608 5608 5608 5606 5605 5603 5603 5602 5602 5601 5599 5598 5597 5596 5594 5594 5593 5591
5642 5646 5649 5649 5648 5647 5645 5641 5640 5639 5637 5634 5630 5627 5625 5622 5620 5619 5617 5616 5613 5610 5607 5606 5605 5603 5602 5601 5600 5598 5597 5596 5596 5595 5594 5594 5593 5592 5590 5588 5587 5587 5585 5584
5633 5638 5638 5639 5639 5639 5637 5635 5632 5630 5629 5626 5623 5620 5617 5614 5612 5610 5609 5607 5605 5602 5599 5598 5597 5595 5594 5593 5592 5590 5589 5589 5589 5588 5587 5586 5585 5583 5583 5582 5582 5581 5579 5578
5624 5631 5628 5628 5633 5633 5628 5626 5623 5620 5618 5618 5616 5613 5611 5608 5605 5602 5600 5599 5596 5594 5591 5590 5589 5587 5586 5586 5585 5583 5582 5582 5581 5581 5580 5578 5577 5576 5576 5576 5576 5575 5574 5572
5629 5630 5627 5625 5625 5623 5620 5618 5616 5613 5610 5608 5608 5606 5603 5600 5597 5595 5592 5590 5588 5585 5583 5582 5581 5579 5578 5577 5577 5576 5575 5574 5574 5573 5573 5571 5570 5569 5567 5567 5567 5566 5565 5564
5624 5621 5616 5616 5613 5613 5612 5611 5608 5606 5604 5602 5600 5597 5594 5591 5589 5586 5584 5582 5580 5577 5575 5574 5572 5571 5570 5570 5569 5568 5568 5567 5567 5566 5565 5565 5564 5563 5562 5560 5558 5557 5556 5556
5614 5613 5609 5609 5607 5605 5603 5601 5597 5595 5594 5592 5590 5588 5585 5582 5579 5578 5576 5575 5572 5569 5567 5566 5564 5563 5563 5562 5561 5560 5560 5560 5560 5559 5559 5558 5558 5557 5555 5554 5552 5550 5548 5547
5605 5603 5601 5599 5597 5595 5593 5590 5587 5586 5584 5582 5580 5578 5576 5573 5571 5570 5568 5566 5563 5561 5560 5558 5556 5555 5555 5555 5554 5553 5553 5554 5553 5552 5552 5551 5550 5548 5547 5546 5544 5542 5541 5539
5594 5592 5591 5589 5588 5586 5585 5583 5580 5578 5576 5574 5572 5570 5567 5564 5562 5560 5559 5557 5555 5553 5552 5551 5549 5548 5548 5547 5547 5546 5545 5545 5546 5544 5544 5543 5542 5540 5539 5538 5536 5535 5534 5532
5589 5587 5586 5583 5581 5579 5578 5576 5573 5571 5568 5567 5565 5562 5559 5556 5553 5552 5551 5550 5548 5546 5544 5542 5541 5540 5540 5539 5539 5538 5538 5538 5537 5536 5536 5535 5534 5533 5531 5530 5529 5527 5525 5523
5581 5580 5578 5576 5575 5572 5570 5568 5566 5564 5562 5560 5557 5554 5552 5549 5547 5545 5543 5541 5539 5537 5536 5535 5535 5533 5532 5532 5531 5530 5530 5530 5529 5528 5527 5526 5525 5524 5523 5521 5520 5519 5517 5515
5572 5571 5569 5568 5566 5564 5562 5560 5558 5556 5554 5552 5549 5546 5544 5543 5540 5538 5535 5533 5531 5530 5529 5527 5527 5526 5525 5524 5523 5522 5521 5521 5520 5520 5519 5517 5517 5516 5515 5513 5512 5511 5509 5507
5563 5562 5560 5558 5557 5555 5554 5553 5550 5548 5546 5544 5541 5539 5537 5535 5533 5530 5527 5525 5524 5523 5522 5521 5519 5518 5517 5516 5515 5514 5513 5513 5512 5511 5510 5509 5508 5507 5506 5505 5504 5502 5500 5498
5554 5553 5551 5550 5548 5547 5546 5545 5543 5541 5539 5537 5534 5532 5529 5526 5525 5523 5521 5519 5517 5516 5514 5512 5511 5510 5509 5508 5507 5506 5506 5505 5504 5503 5501 5500 5499 5498 5497 5496 5495 5494 5492 5490
5544 5543 5542 5540 5539 5538 5537 5536 5534 5532 5530 5528 5526 5523 5521 5519 5517 5515 5513 5511 5510 5508 5506 5504 5503 5502 5502 5500 5499 5498 5498 5497 5496 5494 5493 5492 5491 5490 5489 5488 5486 5485 5483 5481
5534 5533 5532 5531 5530 5529 5527 5526 5525 5523 5521 5520 5518 5515 5513 5511 5509 5507 5506 5504 5503 5500 5498 5496 5495 5494 5493 5492 5491 5490 5489 5489 5488 5486 5486 5484 5483 5482 5481 5479 5478 5476 5474 5472
5525 5524 5523 5522 5520 5519 5519 5517 5515 5514 5512 5510 5509 5507 5506 5504 5502 5500 5498 5496 5495 5493 5491 5490 5489 5487 5485 5484 5483 5482 5481 5481 5480 5478 5477 5476 5475 5473 5472 5471 5469 5468 5466 5464
5515 5514 5514 5513 5512 5510 5509 5508 5506 5504 5503 5501 5499 5498 5497 5496 5494 5492 5490 5488 5487 5485 5484 5482 5481 5480 5478 5477 5476 5475 5473 5472 5471 5470 5469 5468 5466 5465 5464 5463 5461 5460 5458 5457
5505 5505 5504 5503 5503 5502 5500 5499 5497 5495 5494 5492 5491 5489 5488 5486 5485 5483 5482 5480 5479 5477 5476 5475 5474 5472 5471 5470 5468 5467 5466 5464 5463 5462 5461 5459 5458 5457 5456 5455 5454 5452 5451 5449